This is the latest recevied weather packets stored in our database for station/object DB0MOD. If no packets are shown the sender has not sent any weather packets the latest 10 day(s).
| Time | Temp. | Humidity | Pressure | Rain* | Wind** | Luminosity | Snow |
|---|---|---|---|---|---|---|---|
| 1778231634 | 20° C | 25% | 1015.5 hPa | 0 mm | - | - | - |
| 1778231334 | 20.56° C | 18% | 1015.5 hPa | 0 mm | - | - | - |
| 1778231034 | 19.44° C | 10% | 1015.6 hPa | 0 mm | - | - | - |
| 1778230734 | 18.33° C | 10% | 1015.5 hPa | 0 mm | - | - | - |
| 1778230434 | 17.78° C | 10% | 1015.5 hPa | 0 mm | - | - | - |
| 1778230135 | 16.11° C | 10% | 1015.4 hPa | 0 mm | - | - | - |
| 1778229834 | 15° C | 10% | 1015.3 hPa | 0 mm | - | - | - |
| 1778229534 | 13.89° C | 10% | 1015.3 hPa | 0 mm | - | - | - |
| 1778229234 | 12.78° C | 10% | 1015.1 hPa | 0 mm | - | - | - |
| 1778228934 | 12.22° C | 10% | 1015.3 hPa | 0 mm | - | - | - |
| 1778228635 | 11.67° C | 10% | 1015.1 hPa | 0 mm | - | - | - |
| 1778228335 | 11.67° C | 10% | 1015.2 hPa | 0 mm | - | - | - |
| 1778228034 | 11.11° C | 10% | 1015 hPa | 0 mm | - | - | - |
| 1778227735 | 11.11° C | 10% | 1015 hPa | 0 mm | - | - | - |
| 1778227435 | 11.11° C | 10% | 1015.2 hPa | 0 mm | - | - | - |
| 1778227135 | 11.11° C | 10% | 1015.2 hPa | 0 mm | - | - | - |
| 1778226835 | 12.22° C | 10% | 1015.2 hPa | 0 mm | - | - | - |
| 1778226535 | 12.22° C | 10% | 1015.1 hPa | 0 mm | - | - | - |
| 1778226235 | 11.67° C | 10% | 1015.2 hPa | 0 mm | - | - | - |
| 1778225935 | 10.56° C | 10% | 1015.2 hPa | 0 mm | - | - | - |
| 1778225635 | 10° C | 10% | 1015.2 hPa | 0 mm | - | - | - |
| 1778225335 | 10° C | 10% | 1015.1 hPa | 0 mm | - | - | - |
| 1778225035 | 10° C | 10% | 1015.3 hPa | 0 mm | - | - | - |
| 1778224735 | 10° C | 10% | 1015.2 hPa | 0 mm | - | - | - |
| 1778224135 | 9.44° C | 10% | 1015.1 hPa | 0 mm | - | - | - |
* Rain latest hour (hover to see other rain measurements)
** Current wind speed in m/s (hover to see current wind gust speed)